Weather in Denisovo

Russia / Saint-Petersburg and Leningrad Oblast     60°31′26″N   30°32′56″E
temp.,
°C
wind,
m/s
gust,
m/s
humid.,
%
clouds,
%
prec.,
mm/h
press.,
hPa
HPBL,
m
20 june, sun
sun2000:00+19ssw24670 0.0 101855
03:00+18sw38730 0.0 1018143
06:00+20sw37720 0.0 1017166
09:00+26sw35480 0.0 1017587
12:00+29sw47370 0.0 10162013
15:00+30sw58365 0.0 10162240
18:00+29w48340 0.0 10151814
21:00+23sw22630 0.0 101520
21 june, mon
mon2100:00+20sw36693 0.0 1015105
03:00+19sw37760 0.0 1016112
06:00+21ssw267155 0.0 1016147
09:00+27ssw35490 0.0 1016553
12:00+31sw36390 0.0 10162049
15:00+33sw473232 0.0 10152902
18:00+25se225828 0.6 1014126
21:00+24s227796 0.9 101541
22 june, tue
tue2200:00+20sse239014 0.3 101659
03:00+19s26929 0.3 1016102
06:00+21ssw388885 0.3 1016177
09:00+27s36555 0.3 1016487
12:00+31sse46355 0.0 10151513
15:00+33sse57306 0.0 10141814
18:00+32sse373522 0.0 10131755
21:00+27s39548 0.0 1013308
23 june, wed
wed2300:00+22ssw3126754 0.1 1014285
03:00+21ssw3874100 0.1 1014170
06:00+22ssw39808 0.0 1014334
09:00+26sw486239 0.0 1015797
12:00+29sw474925 0.0 10151730
15:00+30sw584815 0.0 10151494
18:00+29wsw485299 0.0 10151257
21:00+24wsw37726 0.0 1016442
24 june, thu
thu2400:00+19sw268616 0.0 1017167
03:00+17w2773100 0.0 1016159
06:00+18wsw236994 0.0 101694
09:00+24w2349100 0.0 1016507
12:00+28ne124178 0.0 10161109
15:00+26ese334782 0.0 1015740
18:00+25e335071 0.0 1013401
21:00+19sse3784100 0.4 1015210